<?xml version='1.0' encoding='UTF-8'?>
<gpx xmlns="http://www.topografix.com/GPX/1/1" creator="www.balnam.be" version="1.1" xmlns:xsi="http://www.w3.org/2001/XMLSchema-instance" xsi:schemaLocation="http://www.topografix.com/GPX/1/1 http://www.topografix.com/GPX/1/1/gpx.xsd">
<trk>
<name>xaoao21</name>
<cmt>r</cmt>
<desc>Arlon Chemin n°21 Rue des Violettes</desc>
<link href="https://chemins.be/arlon/chemin/21"/><trkseg>
<trkpt lat="49.677962" lon="5.802229"><time>2026-05-03T04:01:22Z</time></trkpt>
<trkpt lat="49.677120" lon="5.801270"><time>2026-05-03T04:11:22Z</time></trkpt>
</trkseg>
</trk>
<trk>
<name>xaoao25</name>
<cmt>v</cmt>
<desc>Arlon Chemin n°25 Rue des Glycines</desc>
<link href="https://chemins.be/arlon/chemin/25"/><trkseg>
<trkpt lat="49.689682" lon="5.807915"><time>2026-05-03T04:01:22Z</time></trkpt>
<trkpt lat="49.690140" lon="5.807629"><time>2026-05-03T04:11:22Z</time></trkpt>
</trkseg>
</trk>
<trk>
<name>xaoao29</name>
<cmt>v</cmt>
<desc>Arlon Sentier n°29 Chemin du Peiffeschoff</desc>
<link href="https://chemins.be/arlon/sentier/29"/><trkseg>
<trkpt lat="49.695500" lon="5.838275"><time>2026-05-03T04:01:22Z</time></trkpt>
<trkpt lat="49.695595" lon="5.838829"><time>2026-05-03T04:11:22Z</time></trkpt>
<trkpt lat="49.695472" lon="5.838865"><time>2026-05-03T04:21:22Z</time></trkpt>
<trkpt lat="49.694766" lon="5.838507"><time>2026-05-03T04:31:22Z</time></trkpt>
<trkpt lat="49.694244" lon="5.839212"><time>2026-05-03T04:41:22Z</time></trkpt>
</trkseg></trk>
<trk>
<name>xaoao29</name>
<cmt>r</cmt>
<desc>Arlon Sentier n°29 Chemin du Peiffeschoff</desc>
<link href="https://chemins.be/arlon/sentier/29"/><trkseg>
<trkpt lat="49.694244" lon="5.839212"><time>2026-05-03T04:41:22Z</time></trkpt>
<trkpt lat="49.693730" lon="5.838275"><time>2026-05-03T04:51:22Z</time></trkpt>
</trkseg></trk>
<trk>
<name>xaoao29</name>
<cmt>q</cmt>
<desc>Arlon Sentier n°29 Chemin du Peiffeschoff</desc>
<link href="https://chemins.be/arlon/sentier/29"/><trkseg>
<trkpt lat="49.693730" lon="5.838275"><time>2026-05-03T04:51:22Z</time></trkpt>
<trkpt lat="49.692382" lon="5.839042"><time>2026-05-03T05:01:22Z</time></trkpt>
<trkpt lat="49.691762" lon="5.839661"><time>2026-05-03T05:11:22Z</time></trkpt>
</trkseg>
</trk>
<trk>
<name>xaoao30</name>
<cmt>v</cmt>
<desc>Arlon Sentier n°30 Chemin du Peiffeschoff</desc>
<link href="https://chemins.be/arlon/sentier/30"/><trkseg>
<trkpt lat="49.693095" lon="5.842827"><time>2026-05-03T04:01:22Z</time></trkpt>
<trkpt lat="49.693391" lon="5.842741"><time>2026-05-03T04:11:22Z</time></trkpt>
<trkpt lat="49.694341" lon="5.844124"><time>2026-05-03T04:21:22Z</time></trkpt>
<trkpt lat="49.696796" lon="5.843409"><time>2026-05-03T04:31:22Z</time></trkpt>
</trkseg>
</trk>
<trk>
<name>xaoao32</name>
<cmt>v</cmt>
<desc>Arlon Sentier n°32 Ruelle des Jardins</desc>
<link href="https://chemins.be/arlon/sentier/32"/><trkseg>
<trkpt lat="49.682401" lon="5.817464"><time>2026-05-03T04:01:22Z</time></trkpt>
<trkpt lat="49.682198" lon="5.817167"><time>2026-05-03T04:11:22Z</time></trkpt>
<trkpt lat="49.681929" lon="5.817117"><time>2026-05-03T04:21:22Z</time></trkpt>
<trkpt lat="49.681822" lon="5.817058"><time>2026-05-03T04:31:22Z</time></trkpt>
<trkpt lat="49.681752" lon="5.816945"><time>2026-05-03T04:41:22Z</time></trkpt>
</trkseg>
</trk>
<trk>
<name>xaoao33</name>
<cmt>s</cmt>
<desc>Arlon Sentier n°33 </desc>
<link href="https://chemins.be/arlon/sentier/33"/><trkseg>
<trkpt lat="49.682356" lon="5.808609"><time>2026-05-03T04:01:22Z</time></trkpt>
<trkpt lat="49.682090" lon="5.808001"><time>2026-05-03T04:11:22Z</time></trkpt>
<trkpt lat="49.680005" lon="5.805952"><time>2026-05-03T04:21:22Z</time></trkpt>
</trkseg>
</trk>
<trk>
<name>xaoao35</name>
<cmt>r</cmt>
<desc>Arlon Sentier n°35 </desc>
<link href="https://chemins.be/arlon/sentier/35"/><trkseg>
<trkpt lat="49.685617" lon="5.809070"><time>2026-05-03T04:01:22Z</time></trkpt>
<trkpt lat="49.685713" lon="5.806952"><time>2026-05-03T04:11:22Z</time></trkpt>
</trkseg></trk>
<trk>
<name>xaoao35</name>
<cmt>v</cmt>
<desc>Arlon Sentier n°35 </desc>
<link href="https://chemins.be/arlon/sentier/35"/><trkseg>
<trkpt lat="49.685713" lon="5.806952"><time>2026-05-03T04:11:22Z</time></trkpt>
<trkpt lat="49.685719" lon="5.806802"><time>2026-05-03T04:21:22Z</time></trkpt>
</trkseg>
</trk>
<trk>
<name>xaoaoi1</name>
<cmt>v</cmt>
<desc>Arlon Sentier n°i1 GR 16</desc>
<link href="https://chemins.be/arlon/sentier/i1"/><trkseg>
<trkpt lat="49.677928" lon="5.811384"><time>2026-05-03T04:01:22Z</time></trkpt>
<trkpt lat="49.677779" lon="5.810396"><time>2026-05-03T04:11:22Z</time></trkpt>
<trkpt lat="49.677681" lon="5.810296"><time>2026-05-03T04:21:22Z</time></trkpt>
<trkpt lat="49.677642" lon="5.809796"><time>2026-05-03T04:31:22Z</time></trkpt>
<trkpt lat="49.677768" lon="5.808414"><time>2026-05-03T04:41:22Z</time></trkpt>
<trkpt lat="49.677824" lon="5.808263"><time>2026-05-03T04:51:22Z</time></trkpt>
<trkpt lat="49.677888" lon="5.806699"><time>2026-05-03T05:01:22Z</time></trkpt>
<trkpt lat="49.677891" lon="5.806478"><time>2026-05-03T05:11:22Z</time></trkpt>
<trkpt lat="49.678016" lon="5.804430"><time>2026-05-03T05:21:22Z</time></trkpt>
</trkseg>
</trk>
<trk>
<name>xaoaoi2</name>
<cmt>v</cmt>
<desc>Arlon Sentier n°i2 </desc>
<link href="https://chemins.be/arlon/sentier/i2"/><trkseg>
<trkpt lat="49.691528" lon="5.811099"><time>2026-05-03T04:01:22Z</time></trkpt>
<trkpt lat="49.691565" lon="5.811017"><time>2026-05-03T04:11:22Z</time></trkpt>
<trkpt lat="49.691548" lon="5.810933"><time>2026-05-03T04:21:22Z</time></trkpt>
<trkpt lat="49.691892" lon="5.810070"><time>2026-05-03T04:31:22Z</time></trkpt>
<trkpt lat="49.691912" lon="5.809863"><time>2026-05-03T04:41:22Z</time></trkpt>
<trkpt lat="49.692182" lon="5.809150"><time>2026-05-03T04:51:22Z</time></trkpt>
<trkpt lat="49.692312" lon="5.808835"><time>2026-05-03T05:01:22Z</time></trkpt>
<trkpt lat="49.692578" lon="5.808441"><time>2026-05-03T05:11:22Z</time></trkpt>
<trkpt lat="49.692724" lon="5.808210"><time>2026-05-03T05:21:22Z</time></trkpt>
</trkseg>
</trk>
<trk>
<name>xaoaoi3</name>
<cmt>v</cmt>
<desc>Arlon Sentier n°i3 </desc>
<link href="https://chemins.be/arlon/sentier/i3"/><trkseg>
<trkpt lat="49.686272" lon="5.824912"><time>2026-05-03T04:01:22Z</time></trkpt>
<trkpt lat="49.686282" lon="5.824899"><time>2026-05-03T04:11:22Z</time></trkpt>
<trkpt lat="49.686499" lon="5.824794"><time>2026-05-03T04:21:22Z</time></trkpt>
<trkpt lat="49.686492" lon="5.824628"><time>2026-05-03T04:31:22Z</time></trkpt>
<trkpt lat="49.686555" lon="5.824602"><time>2026-05-03T04:41:22Z</time></trkpt>
<trkpt lat="49.686719" lon="5.824482"><time>2026-05-03T04:51:22Z</time></trkpt>
<trkpt lat="49.686881" lon="5.824432"><time>2026-05-03T05:01:22Z</time></trkpt>
<trkpt lat="49.687705" lon="5.824013"><time>2026-05-03T05:11:22Z</time></trkpt>
<trkpt lat="49.687834" lon="5.823767"><time>2026-05-03T05:21:22Z</time></trkpt>
<trkpt lat="49.687863" lon="5.823574"><time>2026-05-03T05:31:22Z</time></trkpt>
</trkseg>
</trk>
<trk>
<name>xaoaoi4</name>
<cmt>v</cmt>
<desc>Arlon Chemin n°i4 Impasse du Musée</desc>
<link href="https://chemins.be/arlon/chemin/i4"/><trkseg>
<trkpt lat="49.686284" lon="5.813326"><time>2026-05-03T04:01:22Z</time></trkpt>
<trkpt lat="49.686156" lon="5.812823"><time>2026-05-03T04:11:22Z</time></trkpt>
<trkpt lat="49.685919" lon="5.812372"><time>2026-05-03T04:21:22Z</time></trkpt>
<trkpt lat="49.685648" lon="5.811726"><time>2026-05-03T04:31:22Z</time></trkpt>
</trkseg>
</trk>
<trk>
<name>xaoaoi5</name>
<cmt>v</cmt>
<desc>Arlon Sentier n°i5 Rue du Marché-aux-Fleurs</desc>
<link href="https://chemins.be/arlon/sentier/i5"/><trkseg>
<trkpt lat="49.685854" lon="5.813088"><time>2026-05-03T04:01:22Z</time></trkpt>
<trkpt lat="49.685677" lon="5.813331"><time>2026-05-03T04:11:22Z</time></trkpt>
<trkpt lat="49.685540" lon="5.813506"><time>2026-05-03T04:21:22Z</time></trkpt>
<trkpt lat="49.685291" lon="5.813844"><time>2026-05-03T04:31:22Z</time></trkpt>
<trkpt lat="49.685071" lon="5.814122"><time>2026-05-03T04:41:22Z</time></trkpt>
<trkpt lat="49.685014" lon="5.814177"><time>2026-05-03T04:51:22Z</time></trkpt>
<trkpt lat="49.684928" lon="5.814279"><time>2026-05-03T05:01:22Z</time></trkpt>
<trkpt lat="49.684933" lon="5.814347"><time>2026-05-03T05:11:22Z</time></trkpt>
<trkpt lat="49.684825" lon="5.814592"><time>2026-05-03T05:21:22Z</time></trkpt>
</trkseg>
</trk>
<trk>
<name>xaoaoLv624</name>
<cmt>q</cmt>
<desc>Arlon Sentier n°Lv624 Rue de Bastogne / Chemin du Moulin Lampach</desc>
<link href="https://chemins.be/arlon/sentier/Lv624"/><trkseg>
<trkpt lat="49.695404" lon="5.809973"><time>2026-05-03T04:01:22Z</time></trkpt>
<trkpt lat="49.695144" lon="5.809877"><time>2026-05-03T04:11:22Z</time></trkpt>
<trkpt lat="49.691894" lon="5.811966"><time>2026-05-03T04:21:22Z</time></trkpt>
<trkpt lat="49.691706" lon="5.812438"><time>2026-05-03T04:31:22Z</time></trkpt>
</trkseg></trk>
<trk>
<name>xaoaoLv624</name>
<cmt>r</cmt>
<desc>Arlon Sentier n°Lv624 Rue de Bastogne / Chemin du Moulin Lampach</desc>
<link href="https://chemins.be/arlon/sentier/Lv624"/><trkseg>
<trkpt lat="49.691706" lon="5.812438"><time>2026-05-03T04:31:22Z</time></trkpt>
<trkpt lat="49.691190" lon="5.813162"><time>2026-05-03T04:41:22Z</time></trkpt>
<trkpt lat="49.690367" lon="5.812631"><time>2026-05-03T04:51:22Z</time></trkpt>
<trkpt lat="49.690027" lon="5.811998"><time>2026-05-03T05:01:22Z</time></trkpt>
<trkpt lat="49.690048" lon="5.810807"><time>2026-05-03T05:11:22Z</time></trkpt>
<trkpt lat="49.689957" lon="5.810743"><time>2026-05-03T05:21:22Z</time></trkpt>
<trkpt lat="49.692206" lon="5.803243"><time>2026-05-03T05:31:22Z</time></trkpt>
<trkpt lat="49.692352" lon="5.802632"><time>2026-05-03T05:41:22Z</time></trkpt>
<trkpt lat="49.692893" lon="5.800400"><time>2026-05-03T05:51:22Z</time></trkpt>
<trkpt lat="49.692883" lon="5.798485"><time>2026-05-03T06:01:22Z</time></trkpt>
</trkseg></trk>
<trk>
<name>xaoaoLv624</name>
<cmt>v</cmt>
<desc>Arlon Sentier n°Lv624 Rue de Bastogne / Chemin du Moulin Lampach</desc>
<link href="https://chemins.be/arlon/sentier/Lv624"/><trkseg>
<trkpt lat="49.692883" lon="5.798485"><time>2026-05-03T06:01:22Z</time></trkpt>
<trkpt lat="49.692345" lon="5.796358"><time>2026-05-03T06:11:22Z</time></trkpt>
<trkpt lat="49.691923" lon="5.795564"><time>2026-05-03T06:21:22Z</time></trkpt>
<trkpt lat="49.691501" lon="5.794882"><time>2026-05-03T06:31:22Z</time></trkpt>
</trkseg>
</trk>
</gpx>